AI9T Weather Reports


time (UTC)temp
C
wind
direction
speed
KPH
gust
KPH
rain 1hr
cm
rain 24hr
cm
rain mn
cm
humidity
%
barometer
mb
20260906101504 22 30 3.2 12.9 0.00 0.00 0.00 95 1012.8
20260906101004 22 44 4.8 11.3 0.00 0.00 0.00 95 1013.0
20260906095503 22 20 1.6 9.7 0.00 0.00 0.00 96 1012.8
20260906095003 22 24 4.8 11.3 0.00 0.00 0.00 96 1012.8
20260906094504 22 35 4.8 12.9 0.00 0.00 0.00 95 1012.8
20260906093004 22 28 1.6 11.3 0.00 0.00 0.00 95 1012.7
20260906092504 22 333 3.2 11.3 0.00 0.00 0.00 95 1012.7
20260906092003 22 0 1.6 4.8 0.00 0.00 0.00 95 1012.7
20260906091004 22 26 3.2 9.7 0.00 0.00 0.00 95 1012.6
20260906090004 22 46 0.0 11.3 0.00 0.00 0.00 95 1012.4
20260906083503 22 25 1.6 9.7 0.00 0.00 0.00 95 1012.5
20260906082504 22 22 4.8 11.3 0.00 0.00 0.00 95 1012.3
20260906082004 22 0 1.6 9.7 0.00 0.00 0.00 95 1012.2
20260906075504 22 40 1.6 8.0 0.00 0.00 0.00 94 1012.2
20260906075004 22 38 0.0 8.0 0.00 0.00 0.00 94 1012.2
20260906072004 22 321 3.2 9.7 0.00 0.00 0.00 93 1012.3
20260906071504 22 344 1.6 4.8 0.00 0.00 0.00 93 1012.3
20260906071003 22 336 1.6 4.8 0.00 0.00 0.00 93 1012.3
20260906070004 22 333 0.0 4.8 0.00 0.00 0.00 93 1012.2
20260906065504 22 350 0.0 4.8 0.00 0.00 0.00 93 1012.3
20260906064504 22 355 0.0 4.8 0.00 0.00 0.00 93 1012.4
20260906064004 22 5 0.0 8.0 0.00 0.00 0.00 92 1012.5
20260906063504 22 7 1.6 8.0 0.00 0.00 0.00 92 1012.4
20260906062004 22 350 0.0 4.8 0.00 0.00 0.00 91 1012.4
20260906061503 22 349 0.0 4.8 0.00 0.00 0.00 91 1012.5
20260906061003 22 348 0.0 4.8 0.00 0.00 0.00 91 1012.5
20260906055504 22 355 0.0 4.8 0.00 0.00 0.00 90 1012.6
20260906054004 22 340 0.0 4.8 0.00 0.00 0.00 89 1012.5
20260906053503 23 341 0.0 8.0 0.00 0.00 0.00 89 1012.5
20260906053003 23 341 0.0 8.0 0.00 0.00 0.00 89 1012.4
20260906052503 23 24 0.0 4.8 0.00 0.00 0.00 88 1012.5
20260906050004 23 335 0.0 4.8 0.00 0.00 0.00 87 1012.3
20260906045504 23 341 0.0 8.0 0.00 0.00 0.00 86 1012.4
20260906044003 23 28 1.6 12.9 0.00 0.00 0.00 84 1012.2
20260906042504 24 350 0.0 8.0 0.00 0.00 0.00 82 1012.1
20260906041504 24 5 0.0 8.0 0.00 0.00 0.00 81 1011.9
20260906040504 25 15 3.2 16.1 0.00 0.00 0.00 80 1012.1
20260906035504 25 28 6.4 16.1 0.00 0.00 0.00 80 1012.0
20260906035004 25 37 3.2 12.9 0.00 0.00 0.00 80 1012.0
20260906034004 25 6 1.6 11.3 0.00 0.00 0.00 80 1012.1
20260906032504 26 39 1.6 16.1 0.00 0.00 0.00 79 1011.8
20260906032004 26 31 3.2 16.1 0.00 0.00 0.00 78 1011.8
20260906031504 26 348 3.2 14.5 0.00 0.00 0.00 77 1011.7
20260906025504 26 15 0.0 11.3 0.00 0.00 0.00 76 1011.5
20260906024504 26 29 3.2 9.7 0.00 0.00 0.00 75 1011.5
20260906024003 27 14 1.6 12.9 0.00 0.00 0.00 75 1011.6
20260906022504 27 0 3.2 9.7 0.00 0.00 0.00 74 1011.3
20260906022004 27 30 3.2 9.7 0.00 0.00 0.00 74 1011.2
20260906020004 27 15 4.8 19.3 0.00 0.00 0.00 76 1010.9
20260906014504 28 38 1.6 9.7 0.00 0.00 0.00 79 1010.7
20260906014004 28 31 1.6 11.3 0.00 0.00 0.00 79 1010.6
20260906013504 28 47 1.6 11.3 0.00 0.00 0.00 79 1010.5
20260906013005 28 347 4.8 12.9 0.00 0.00 0.00 78 1010.4
20260906012004 28 16 4.8 12.9 0.00 0.00 0.00 78 1010.2
20260906010504 28 326 1.6 9.7 0.00 0.00 0.00 77 1009.9
20260906010003 28 330 0.0 8.0 0.00 0.00 0.00 77 1009.8
20260906003504 29 327 0.0 9.7 0.00 0.00 0.00 74 1009.8
20260906003004 30 332 3.2 8.0 0.00 0.00 0.00 74 1009.8
20260905235003 31 327 0.0 9.7 0.00 0.00 0.00 69 1009.6
20260905234004 31 329 0.0 8.0 0.00 0.00 0.00 67 1009.6
20260905233503 31 331 3.2 8.0 0.00 0.00 0.00 67 1009.4
20260905233004 31 334 1.6 8.0 0.00 0.00 0.00 67 1009.5
20260905232004 31 330 0.0 11.3 0.00 0.00 0.00 66 1009.5
20260905231503 32 336 0.0 3.2 0.00 0.00 0.00 66 1009.5
20260905231004 32 336 0.0 3.2 0.00 0.00 0.00 65 1009.5
20260905224504 32 338 0.0 4.8 0.00 0.00 0.00 61 1009.3
20260905223504 32 336 0.0 4.8 0.00 0.00 0.00 61 1009.3
20260905223004 32 345 0.0 9.7 0.00 0.00 0.00 60 1009.2
20260905222004 33 0 1.6 4.8 0.00 0.00 0.00 59 1009.3
20260905221503 33 332 1.6 8.0 0.00 0.00 0.00 58 1009.4
20260905221004 33 350 3.2 8.0 0.00 0.00 0.00 58 1009.3
20260905215004 33 341 1.6 12.9 0.00 0.00 0.00 55 1009.3
20260905214504 33 324 1.6 12.9 0.00 0.00 0.00 55 1009.3
20260905214004 33 325 3.2 12.9 0.00 0.00 0.00 54 1009.3
20260905213004 34 325 0.0 9.7 0.00 0.00 0.00 56 1009.3
20260905212504 34 328 1.6 9.7 0.00 0.00 0.00 54 1009.4
20260905211504 34 12 1.6 9.7 0.00 0.00 0.00 51 1009.3
20260905210504 35 328 1.6 11.3 0.00 0.00 0.00 50 1009.4
20260905210004 35 330 1.6 12.9 0.00 0.00 0.00 49 1009.4
20260905205003 35 334 1.6 12.9 0.00 0.00 0.00 51 1009.5
20260905204004 35 319 3.2 19.3 0.00 0.00 0.00 50 1009.7
20260905202504 35 331 3.2 19.3 0.00 0.00 0.00 47 1009.7
20260905201503 36 38 3.2 11.3 0.00 0.00 0.00 44 1009.9
20260905201003 36 281 0.0 11.3 0.00 0.00 0.00 44 1009.9
20260905200504 36 261 1.6 9.7 0.00 0.00 0.00 46 1009.9
20260905200004 36 322 4.8 12.9 0.00 0.00 0.00 46 1009.9
20260905194503 36 275 0.0 9.7 0.00 0.00 0.00 46 1009.9
20260905194004 36 251 1.6 9.7 0.00 0.00 0.00 47 1009.8
20260905193504 36 347 0.0 8.0 0.00 0.00 0.00 46 1009.9
20260905193004 36 279 1.6 9.7 0.00 0.00 0.00 45 1010.0
20260905192504 36 277 3.2 11.3 0.00 0.00 0.00 46 1010.0
20260905192004 36 224 1.6 11.3 0.00 0.00 0.00 46 1010.1
20260905191004 35 323 1.6 11.3 0.00 0.00 0.00 46 1010.2
20260905190504 35 317 1.6 11.3 0.00 0.00 0.00 46 1010.2
20260905190003 35 231 1.6 12.9 0.00 0.00 0.00 46 1010.2
20260905185504 35 293 3.2 12.9 0.00 0.00 0.00 46 1010.3
20260905185004 35 332 1.6 11.3 0.00 0.00 0.00 50 1010.4
20260905184503 35 319 4.8 12.9 0.00 0.00 0.00 50 1010.5
20260905183503 35 89 0.0 4.8 0.00 0.00 0.00 49 1010.6
20260905183004 35 316 0.0 4.8 0.00 0.00 0.00 49 1010.6
20260905182504 35 313 0.0 4.8 0.00 0.00 0.00 50 1010.7
20260905182004 35 330 0.0 11.3 0.00 0.00 0.00 52 1010.8
20260905181004 35 313 1.6 8.0 0.00 0.00 0.00 50 1010.9
20260905180504 35 20 0.0 8.0 0.00 0.00 0.00 52 1010.9
20260905175504 35 232 0.0 1.6 0.00 0.00 0.00 49 1010.9
20260905174504 35 230 0.0 4.8 0.00 0.00 0.00 50 1011.1
20260905172503 35 270 0.0 4.8 0.00 0.00 0.00 51 1011.1
20260905171503 35 165 0.0 0.0 0.00 0.00 0.00 56 1011.2
20260905171004 34 171 0.0 0.0 0.00 0.00 0.00 56 1011.2
20260905170503 34 171 0.0 0.0 0.00 0.00 0.00 54 1011.2
20260905170003 34 181 0.0 0.0 0.00 0.00 0.00 54 1011.4
20260905165504 34 184 0.0 1.6 0.00 0.00 0.00 55 1011.4
20260905165004 34 97 0.0 3.2 0.00 0.00 0.00 56 1011.4
20260905164503 33 49 0.0 3.2 0.00 0.00 0.00 57 1011.5
20260905164003 33 47 0.0 0.0 0.00 0.00 0.00 57 1011.6
20260905162504 33 46 0.0 3.2 0.00 0.00 0.00 57 1011.7
20260905162004 33 56 0.0 4.8 0.00 0.00 0.00 59 1011.8
20260905160004 32 74 0.0 0.0 0.00 0.00 0.00 60 1011.7
20260905155504 32 74 0.0 0.0 0.00 0.00 0.00 60 1011.9
20260905154005 32 74 0.0 3.2 0.00 0.00 0.00 63 1011.8
20260905153504 32 73 0.0 1.6 0.00 0.00 0.00 62 1011.8
20260905153004 31 73 0.0 4.8 0.00 0.00 0.00 63 1011.9
20260905152504 31 73 1.6 8.0 0.00 0.00 0.00 66 1012.0
20260905151504 31 85 1.6 8.0 0.00 0.00 0.00 67 1012.2
20260905151004 31 72 0.0 16.1 0.00 0.00 0.00 67 1012.4
20260905145504 31 40 0.0 0.0 0.00 0.00 0.00 65 1012.1
20260905145004 31 34 0.0 0.0 0.00 0.00 0.00 61 1012.1
20260905144504 31 43 0.0 0.0 0.00 0.00 0.00 64 1011.9
20260905144004 31 51 0.0 0.0 0.00 0.00 0.00 67 1011.8
20260905143504 31 84 0.0 0.0 0.00 0.00 0.00 67 1011.9
20260905141503 30 84 0.0 0.0 0.00 0.00 0.00 69 1011.8
20260905141004 30 99 0.0 0.0 0.00 0.00 0.00 69 1011.8
20260905140504 29 99 0.0 0.0 0.00 0.00 0.00 71 1011.8
20260905134504 28 98 0.0 0.0 0.00 0.00 0.00 78 1011.6
20260905133504 28 98 0.0 0.0 0.00 0.00 0.00 79 1011.6
20260905130503 26 98 0.0 0.0 0.00 0.00 0.00 89 1011.9
20260905125004 25 97 0.0 0.0 0.00 0.00 0.00 95 1011.9
20260905124504 25 96 0.0 0.0 0.00 0.00 0.00 96 1011.9
20260905124004 24 96 0.0 0.0 0.00 0.00 0.00 97 1012.1
20260905123004 23 96 0.0 0.0 0.00 0.00 0.00 97 1011.9
20260905121003 22 96 0.0 4.8 0.00 0.00 0.00 97 1011.8
20260905120504 22 96 1.6 8.0 0.00 0.00 0.00 97 1011.8
20260905113004 22 208 0.0 0.0 0.00 0.00 0.00 96 1011.4
20260905112504 22 208 0.0 0.0 0.00 0.00 0.00 96 1011.5
20260905112004 22 208 0.0 0.0 0.00 0.00 0.00 96 1011.5
20260905111504 22 208 0.0 0.0 0.00 0.00 0.00 96 1011.5
20260905110503 22 208 0.0 0.0 0.00 0.00 0.00 96 1011.4
20260905110004 22 208 0.0 0.0 0.00 0.00 0.00 96 1011.4
20260905105504 22 208 0.0 0.0 0.00 0.00 0.00 96 1011.4
20260905105004 22 208 0.0 0.0 0.00 0.00 0.00 96 1011.4
20260905104504 22 208 0.0 0.0 0.00 0.00 0.00 96 1011.3
20260905103504 22 208 0.0 0.0 0.00 0.00 0.00 95 1011.3
20260905102004 22 208 0.0 0.0 0.00 0.00 0.00 95 1011.4